Location: St. Malo Provincial Park
(49.3214°N, 96.9305°W)
Time: 08:52:01
(UTC-05:00)

Daily predictions for brighter satellites

Satellite Brightness Start Highest point End
(mag) Time Altitude Azimuth Time Altitude Azimuth Time Altitude Azimuth
SL-16 R/B 2.7 19:40:23 10° S 19:45:37 39° ESE 19:50:52 10° NE
Cosmos 292 Rocket 3.8 19:46:33 10° SSW 19:51:21 78° ESE 19:56:12 10° NNE
Cosmos 1953 3.5 19:49:49 10° SE 19:52:54 22° E 19:55:58 10° NE
Spot 1 4.2 19:52:37 10° SSE 19:57:17 66° ENE 20:01:43 10° N
SeaSat 1 4.1 19:56:32 10° E 19:58:16 12° E 20:00:00 10° ESE
ATLAS 3B R/B 3.4 19:51:44 10° SW 19:59:17 64° NW 20:06:33 10° NE
Cosmos 1452 Rocket 3.6 19:54:10 10° NNW 19:59:24 59° ENE 20:04:35 10° SE
Helios 1A 3.2 19:55:36 10° SE 19:59:39 51° ENE 20:03:45 10° N
COSMO-SKYMED 1 2.9 19:56:53 10° N 20:01:14 72° WNW 20:05:33 10° SSW
Cosmos 1378 3.1 19:57:57 10° N 20:01:43 84° E 20:05:27 10° S
Cosmos 1805 4.2 20:00:24 10° SSE 20:03:44 27° E 20:07:05 10° NNE
Meteor 1-28 Rocket 3.1 20:00:57 10° NNE 20:04:40 62° E 20:08:21 10° S
Cosmos 2219 Rocket 3.1 19:59:34 10° SW 20:05:04 53° NW 20:10:38 10° NNE
H-2A R/B 3.8 20:02:00 10° SE 20:05:20 27° ENE 20:08:39 10° N
Cosmos 2278 Rocket 4.0 20:01:02 10° NW 20:06:05 34° WSW 20:11:07 10° S
METEOR-M 4.1 20:00:57 10° SSE 20:06:17 77° ENE 20:11:40 10° NNW
Cosmos 1544 4.5 20:03:55 10° SE 20:06:40 20° E 20:09:25 10° NE
CZ-4B DEB 3.6 20:07:01 10° SE 20:09:58 32° ENE 20:12:56 10° N
NOSS 0 Rocket 4.4 20:04:34 10° SW 20:10:43 67° WNW 20:16:56 10° NNE
Cosmos 2297 4.4 20:05:38 10° NW 20:11:14 59° WSW 20:16:45 10° S
Meteor 1-22 Rocket 4.0 20:06:00 10° S 20:11:20 78° E 20:16:38 10° NNE
ALOS 2.6 20:07:00 10° SE 20:11:26 44° ENE 20:15:52 10° N
FENGYUN 3A 3.9 20:10:01 10° SE 20:15:11 50° ENE 20:20:24 10° N
NOSS 3-2 (A) 3.6 20:10:30 10° SSW 20:16:26 53° ESE 20:22:56 10° NE
Meteor 1-24 Rocket 4.3 20:11:10 10° NNW 20:16:49 62° W 20:22:13 10° S
COSMOS 2455 4.2 20:14:19 10° WSW 20:19:58 40° NW 20:25:39 10° NNE
Cosmos 1766 Rocket 3.5 20:17:32 10° N 20:21:58 81° E 20:26:19 10° SSE
USA 238 DEB 3.9 20:15:07 10° SW 20:22:11 78° NW 20:29:16 10° NE
USA 238 3.9 20:15:13 10° SW 20:22:17 78° NW 20:29:23 10° NE
Cosmos 1420 Rocket 4.2 20:17:15 10° NNW 20:22:27 54° ENE 20:27:35 10° SE
CZ-4C R/B 2.6 20:17:12 10° SW 20:22:40 71° NW 20:28:58 10° NE
FREGAT/IRIS 3.8 20:20:23 10° S 20:23:23 47° W 20:26:24 10° NNW
SJ-6B 4.1 20:20:43 10° S 20:24:33 45° W 20:28:29 10° NNW
Cosmos 2369 Rocket 2.9 20:19:56 10° NNW 20:25:09 37° NE 20:28:54 17° ESE
Cosmos 1470 4.1 20:24:31 19° ESE 20:25:16 20° E 20:28:07 10° NE
Cosmos 2034 Rocket 4.0 20:25:24 10° S 20:31:35 66° E 20:37:52 10° NNE
H-2A R/B 4.0 20:31:47 13° ENE 20:32:27 13° NE 20:34:34 10° NNE
Cosmos 1943 Rocket 3.5 20:28:02 10° N 20:32:32 23° NE 20:35:14 17° E
Cosmos 1603 4.2 20:27:39 10° S 20:32:51 37° ESE 20:38:05 10° NE
Cosmos 1464 Rocket 4.0 20:27:49 10° S 20:34:05 88° ESE 20:40:18 10° N
Cosmos 1758 3.3 20:30:15 10° S 20:34:16 59° E 20:38:20 10° NNE
USA 186 2.2 20:35:05 26° NE 20:35:05 26° NE 20:36:43 10° N
Cosmos 1076 Rocket 4.2 20:34:13 10° NNW 20:38:29 58° W 20:42:43 10° S
TELKOM 3 3.7 20:37:08 10° W 20:39:53 46° SSW 20:40:27 35° SSE
Helios 1B rocket 2.3 20:36:04 10° NNE 20:40:14 83° ESE 20:44:20 10° SSW
ASTEX 1 3.5 20:37:55 10° NNE 20:42:45 51° E 20:47:30 10° SSE
Spot 2 Rocket 4.1 20:39:09 10° S 20:44:06 57° WSW 20:49:06 10° NNW
ERBS 3.9 20:41:32 10° NW 20:44:36 27° NNE 20:46:05 20° NE
Cosmos 2333 Rocket 3.7 20:39:23 10° WSW 20:44:46 38° NW 20:50:09 10° NNE
Cosmos-2242 2.9 20:43:22 10° S 20:47:42 74° E 20:52:07 10° NNE
FengYun 1-2 T 4.5 20:42:48 10° S 20:48:18 70° WSW 20:53:48 10° NNW
Cosmos 1674 2.7 20:45:58 10° N 20:49:49 59° ENE 20:51:56 25° SSE
NOSS 3-2 (C) 3.4 20:47:54 10° SSW 20:54:02 73° SE 21:00:49 10° NE
CENTAUR R/B 3.5 20:49:14 10° SSE 20:59:44 - ENE 20:53:12 24° ESE
Envisat 3.7 20:53:17 28° ESE 20:54:58 35° ENE 20:59:34 10° N
Cosmos 1500 Rocket 3.5 20:51:45 10° N 20:56:10 68° ENE 20:59:05 21° SSE
Cosmos 1346 3.5 20:55:34 10° NNW 20:58:31 61° W 21:00:12 23° S
Cosmos 1842 Rocket 3.7 20:55:05 13° SSE 20:58:39 47° E 21:02:51 10° NNE
Cosmos 1939 Rocket 3.6 20:59:42 32° ENE 20:59:52 32° ENE 21:03:28 10° N
Cosmos 2151 3.4 20:56:01 10° N 21:00:01 40° ENE 21:00:39 38° E
Meteor 1-21 Rocket 4.5 20:54:36 10° NNW 21:00:10 69° W 21:05:39 10° S
Cosmos 1328 4.1 20:59:55 10° N 21:03:44 43° ENE 21:03:59 42° E
Aureole 2 Rocket 4.3 21:02:45 10° SW 21:06:54 41° WNW 21:10:56 10° N
Cosmos 2237 Rocket 4.1 21:05:34 10° WSW 21:10:34 31° NW 21:15:35 10° NNE
Resurs 01 Rocket 3.6 21:08:01 10° SSW 21:11:55 30° W 21:15:51 10° NW
Cosmos 2058 3.6 21:09:17 10° N 21:12:41 36° ENE 21:12:41 36° ENE
SPOT 5 3.8 21:15:27 26° NE 21:15:27 26° NE 21:18:34 10° N
SL-14 R/B 4.2 21:12:19 10° N 21:15:25 34° NE 21:15:25 34° NE
Meteor 1-29 4.3 21:12:45 10° N 21:16:06 41° WNW 21:19:25 10° SW
ATLAS 5 CENTAUR R/B 1.8 21:12:51 10° SW 21:17:44 86° SE 21:23:06 10° NE
CZ-2D R/B 4.3 21:18:24 13° S 21:21:44 44° W 21:25:29 10° NNW
USA 215 3.2 21:17:38 12° ENE 21:23:49 84° SE 21:30:23 10° SW
Cosmos 482 Debris 4.5 21:22:07 10° WNW 21:24:11 45° NNW 21:24:11 45° NNW
Cosmos 1953 3.9 21:25:28 10° SW 21:29:09 35° WNW 21:32:51 10° N
SL-16 R/B 3.4 21:24:19 10° WSW 21:29:43 42° NW 21:35:09 10° NNE
Cosmos 1110 Rocket 4.0 21:28:43 10° NNW 21:34:00 68° ENE 21:34:54 57° ESE
ERS-1 Rocket 2.8 21:34:54 51° SSE 21:36:13 84° ENE 21:41:16 10° NNW
SeaSat 1 2.3 21:31:37 10° NNE 21:36:35 72° ESE 21:41:31 10° SSW
GP-B 3.2 21:32:46 10° N 21:37:14 76° W 21:38:50 39° SSW
ATLAS CENTAUR R/B 4.5 21:30:44 10° WSW 21:37:37 86° NNW 22:02:16 10° ENE
MetOp-A 4.4 21:37:47 47° ENE 21:37:57 47° ENE 21:43:05 10° N
Cosmos 1655 Rocket 3.9 21:33:41 10° N 21:39:57 76° E 21:42:01 44° SSE
ARGOS 4.0 21:43:06 34° NE 21:43:06 34° NE 21:47:34 10° N
Cosmos 2279 Rocket 4.0 21:43:54 53° ESE 21:44:28 55° E 21:50:30 10° NNE
ALOS 4.4 21:45:13 10° SSW 21:49:04 25° W 21:52:57 10° NW
Sich 1 4.2 21:44:55 10° N 21:47:40 33° NNE 21:47:40 33° NNE
ATLAS 3B R/B 4.5 21:44:58 10° WNW 21:51:23 30° NNW 21:57:34 10° NE
SL-24 R/B - RUBIN 2 4.4 21:48:38 10° NW 21:55:26 86° NE 21:56:38 62° SE
Cosmos 2266 Rocket 4.4 21:51:58 10° N 21:57:44 45° ENE 21:57:44 45° ENE
Cosmos 2026 Rocket 4.1 21:55:04 10° NNW 22:01:08 72° W 22:03:21 41° SSW
Cosmos 1470 4.1 21:59:51 28° WSW 22:01:09 37° WNW 22:04:48 10° N
Cosmos 1634 Rocket 4.2 21:58:26 10° SSW 22:04:39 68° WNW 22:10:52 10° N
Cosmos 1428 Rocket 4.4 21:59:28 10° N 22:05:46 85° E 22:06:38 68° SSE
Cosmos 1805 Rocket 4.2 22:02:56 10° NNW 22:06:27 54° NNW 22:06:27 54° NNW
H-2A R/B 2.8 22:08:56 49° N 22:08:56 49° N 22:12:16 10° NNW
Cosmos 1331 Rocket 4.0 22:03:46 10° NNW 22:09:05 74° WSW 22:09:09 74° WSW
Cosmos 2369 Rocket 3.0 22:03:56 10° NW 22:09:19 46° WSW 22:10:43 38° SSW
CZ-4C R/B 4.2 22:07:19 10° WNW 22:12:20 28° NNW 22:17:56 10° NE
Cosmos 1943 3.5 22:14:49 55° NNE 22:14:49 55° NNE 22:19:09 10° NNE
Cosmos 1943 Rocket 2.1 22:11:19 10° NNW 22:16:46 81° WNW 22:16:46 81° WNW
Cosmos 1302 Rocket 4.3 22:14:19 10° NNW 22:18:39 62° NNW 22:18:39 62° NNW
Meteor 2-1 Rocket 4.3 22:20:53 79° N 22:20:53 79° N 22:26:25 10° NNE
Cosmos 1633 Rocket 4.5 22:17:45 10° N 22:20:14 33° N 22:20:14 33° N
Terra 3.8 22:26:56 20° NNE 22:26:56 20° NNE 22:28:48 10° N
Cosmos 2221 4.4 22:32:51 26° N 22:32:51 26° N 22:34:54 10° N
MetOp-B 4.5 22:32:20 63° NW 22:32:20 63° NW 22:37:02 10° NNW
H-2A R/B 3.4 22:34:03 29° NNE 22:34:03 29° NNE 22:36:50 10° N
Envisat 4.1 22:33:30 36° WSW 22:33:57 37° W 22:38:41 10° NNW
CENTAUR R/B 3.5 22:37:36 10° SW 22:46:45 38° NE 22:51:03 10° NE
ATLAS 5 CENTAUR R/B 3.8 22:58:42 10° W 23:03:06 28° NNW 23:05:56 19° NNE
USA 215 3.8 23:05:01 43° NNE 23:06:38 53° NNW 23:12:56 10° W
Cosmos 1980 Rocket 4.3 23:37:05 10° NNW 23:39:47 20° NNE 23:39:47 20° NNE
ATLAS 3B R/B 4.4 23:38:24 10° NW 23:44:24 26° N 23:46:34 23° NE
